TimeCST,TemperatureF,Dew PointF,Humidity,Sea Level PressureIn,VisibilityMPH,Wind Direction,Wind SpeedMPH,Gust SpeedMPH,PrecipitationIn,Events,Conditions,WindDirDegrees,DateUTC
12:13 AM,35.6,30.2,81,29.54,10.0,South,12.7,-,N/A,,Clear,190,2013-02-18 06:13:00
12:32 AM,33.8,30.2,87,29.54,10.0,South,12.7,-,N/A,,Clear,190,2013-02-18 06:32:00
12:52 AM,33.8,30.2,87,29.54,10.0,South,10.4,-,N/A,,Clear,190,2013-02-18 06:52:00
1:13 AM,33.8,30.2,87,29.54,10.0,SSW,12.7,-,N/A,,Clear,200,2013-02-18 07:13:00
1:32 AM,33.8,30.2,87,29.54,10.0,SSW,11.5,-,N/A,,Clear,210,2013-02-18 07:32:00
1:52 AM,33.8,30.2,87,29.54,10.0,SW,11.5,-,N/A,,Clear,230,2013-02-18 07:52:00
2:13 AM,35.6,30.2,81,29.54,10.0,WSW,10.4,-,N/A,,Clear,240,2013-02-18 08:13:00
2:32 AM,35.6,30.2,81,29.54,10.0,WSW,11.5,-,N/A,,Clear,250,2013-02-18 08:32:00
2:52 AM,35.6,32.0,87,29.53,10.0,West,13.8,18.4,N/A,,Clear,280,2013-02-18 08:52:00
3:13 AM,35.6,32.0,87,29.53,10.0,West,13.8,-,N/A,,Clear,280,2013-02-18 09:13:00
3:32 AM,35.6,30.2,81,29.52,10.0,WNW,13.8,20.7,N/A,,Clear,300,2013-02-18 09:32:00
3:52 AM,35.6,30.2,81,29.52,10.0,WNW,17.3,-,N/A,,Clear,300,2013-02-18 09:52:00
4:13 AM,35.6,30.2,81,29.52,10.0,WNW,12.7,18.4,N/A,,Clear,300,2013-02-18 10:13:00
4:32 AM,35.6,30.2,81,29.53,10.0,WNW,17.3,21.9,N/A,,Clear,300,2013-02-18 10:32:00
4:53 AM,35.6,30.2,81,29.54,10.0,WNW,13.8,20.7,N/A,,Clear,300,2013-02-18 10:53:00
5:12 AM,35.6,30.2,81,29.54,10.0,WNW,15.0,23.0,N/A,,Clear,300,2013-02-18 11:12:00
5:32 AM,35.6,30.2,81,29.54,10.0,WNW,15.0,21.9,N/A,,Clear,300,2013-02-18 11:32:00
5:53 AM,35.6,30.2,81,29.54,10.0,WNW,15.0,23.0,N/A,,Clear,300,2013-02-18 11:53:00
6:12 AM,33.8,30.2,87,29.54,10.0,WNW,12.7,19.6,N/A,,Clear,300,2013-02-18 12:12:00
6:32 AM,33.8,30.2,87,29.55,10.0,WNW,15.0,-,N/A,,Clear,300,2013-02-18 12:32:00
6:53 AM,33.8,30.2,87,29.55,10.0,NW,15.0,-,N/A,,Clear,310,2013-02-18 12:53:00
7:12 AM,33.8,30.2,87,29.56,10.0,WNW,17.3,23.0,N/A,,Scattered Clouds,300,2013-02-18 13:12:00
7:32 AM,33.8,30.2,87,29.57,7.0,WNW,17.3,-,N/A,,Mostly Cloudy,290,2013-02-18 13:32:00
8:12 AM,35.6,30.2,81,29.58,10.0,NW,16.1,21.9,N/A,,Overcast,310,2013-02-18 14:12:00
8:33 AM,35.6,30.2,81,29.58,10.0,WNW,15.0,20.7,N/A,,Overcast,300,2013-02-18 14:33:00
8:52 AM,35.6,30.2,81,29.59,10.0,NW,23.0,28.8,N/A,,Overcast,310,2013-02-18 14:52:00
9:13 AM,32.0,26.6,80,29.61,10.0,NW,27.6,38.0,N/A,,Overcast,320,2013-02-18 15:13:00
9:33 AM,30.2,24.8,80,29.62,10.0,NW,31.1,36.8,N/A,,Overcast,320,2013-02-18 15:33:00
9:52 AM,30.2,23.0,75,29.64,10.0,NW,28.8,33.4,N/A,,Overcast,320,2013-02-18 15:52:00
10:13 AM,28.4,21.2,74,29.65,10.0,NW,26.5,32.2,N/A,,Overcast,310,2013-02-18 16:13:00
10:33 AM,28.4,21.2,74,29.66,10.0,NW,23.0,33.4,N/A,,Overcast,310,2013-02-18 16:33:00
10:52 AM,26.6,21.2,80,29.67,10.0,NW,23.0,32.2,N/A,,Overcast,320,2013-02-18 16:52:00
11:13 AM,26.6,21.2,80,29.68,10.0,NW,24.2,31.1,N/A,,Overcast,320,2013-02-18 17:13:00
11:33 AM,26.6,19.4,74,29.69,10.0,NW,24.2,34.5,N/A,,Overcast,320,2013-02-18 17:33:00
11:52 AM,26.6,19.4,74,29.69,10.0,NW,26.5,33.4,N/A,,Overcast,310,2013-02-18 17:52:00
12:13 PM,24.8,17.6,74,29.69,10.0,NW,29.9,36.8,N/A,,Overcast,320,2013-02-18 18:13:00
12:32 PM,23.0,15.8,74,29.70,10.0,NW,32.2,39.1,N/A,,Overcast,310,2013-02-18 18:32:00
12:53 PM,23.0,14.0,68,29.71,10.0,NW,33.4,40.3,N/A,Snow,Light Snow,310,2013-02-18 18:53:00
1:13 PM,21.2,14.0,74,29.72,10.0,NW,26.5,40.3,N/A,Snow,Light Snow,310,2013-02-18 19:13:00
1:32 PM,21.2,14.0,74,29.72,10.0,NW,27.6,36.8,N/A,,Overcast,320,2013-02-18 19:32:00
1:53 PM,21.2,14.0,74,29.72,5.0,NW,32.2,38.0,N/A,Snow,Light Snow,310,2013-02-18 19:53:00
2:13 PM,21.2,14.0,74,29.73,5.0,NW,25.3,38.0,N/A,Snow,Light Snow,310,2013-02-18 20:13:00
2:32 PM,21.2,14.0,74,29.74,5.0,NW,25.3,31.1,N/A,Snow,Light Snow,310,2013-02-18 20:32:00
2:53 PM,21.2,12.2,68,29.75,10.0,WNW,28.8,36.8,N/A,Snow,Light Snow,300,2013-02-18 20:53:00
3:13 PM,21.2,12.2,68,29.75,10.0,NW,25.3,33.4,N/A,Snow,Light Snow,310,2013-02-18 21:13:00
3:32 PM,19.4,12.2,74,29.76,5.0,NW,25.3,33.4,N/A,Snow,Light Snow,310,2013-02-18 21:32:00
3:53 PM,19.4,12.2,74,29.76,7.0,NW,27.6,34.5,N/A,Snow,Light Snow,310,2013-02-18 21:53:00
4:13 PM,17.6,10.4,73,29.78,7.0,WNW,28.8,34.5,N/A,,Overcast,300,2013-02-18 22:13:00
4:33 PM,17.6,8.6,68,29.78,5.0,WNW,27.6,34.5,N/A,Snow,Light Snow,300,2013-02-18 22:33:00
4:52 PM,17.6,10.4,73,29.79,2.5,NW,26.5,-,N/A,Snow,Light Snow,310,2013-02-18 22:52:00
5:12 PM,17.6,10.4,73,29.80,1.2,NW,23.0,29.9,N/A,Snow,Light Snow,310,2013-02-18 23:12:00
5:33 PM,14.0,8.6,79,29.80,4.0,NW,27.6,35.7,N/A,Snow,Light Snow,310,2013-02-18 23:33:00
5:52 PM,14.0,8.6,79,29.81,7.0,WNW,24.2,32.2,N/A,Snow,Light Snow,300,2013-02-18 23:52:00
6:13 PM,14.0,5.0,67,29.81,4.0,NW,28.8,38.0,N/A,Snow,Light Snow,320,2013-02-19 00:13:00
6:32 PM,12.2,6.8,79,29.82,7.0,NW,19.6,32.2,N/A,Snow,Light Snow,310,2013-02-19 00:32:00
6:53 PM,12.2,5.0,73,29.83,7.0,NW,27.6,35.7,N/A,Snow,Light Snow,310,2013-02-19 00:53:00
7:13 PM,12.2,6.8,79,29.83,4.0,NW,25.3,36.8,N/A,Snow,Light Snow,310,2013-02-19 01:13:00
7:32 PM,12.2,6.8,79,29.84,2.5,NW,27.6,39.1,N/A,Snow,Light Snow,310,2013-02-19 01:32:00
7:53 PM,12.2,5.0,73,29.84,2.5,NW,24.2,35.7,N/A,Snow,Light Snow,310,2013-02-19 01:53:00
8:13 PM,12.2,5.0,73,29.85,3.0,NW,21.9,38.0,N/A,Snow,Light Snow,310,2013-02-19 02:13:00
8:32 PM,10.4,5.0,79,29.85,3.0,NW,24.2,36.8,N/A,Snow,Light Snow,310,2013-02-19 02:32:00
8:53 PM,10.4,5.0,79,29.85,1.8,NW,25.3,38.0,N/A,Snow,Light Snow,310,2013-02-19 02:53:00
9:13 PM,10.4,5.0,79,29.86,2.0,NW,27.6,34.5,N/A,Snow,Light Snow,320,2013-02-19 03:13:00
9:32 PM,10.4,3.2,73,29.86,2.5,NW,33.4,41.4,N/A,Snow,Light Snow,310,2013-02-19 03:32:00
9:53 PM,6.8,1.4,79,29.87,3.0,NW,28.8,38.0,N/A,,Haze,310,2013-02-19 03:53:00
10:12 PM,6.8,1.4,79,29.88,2.0,NW,25.3,33.4,N/A,Snow,Light Snow,310,2013-02-19 04:12:00
10:32 PM,6.8,1.4,79,29.88,1.8,NW,29.9,38.0,N/A,Snow,Light Snow,310,2013-02-19 04:32:00
10:53 PM,6.8,-0.4,72,29.89,7.0,NW,27.6,41.4,N/A,,Overcast,320,2013-02-19 04:53:00
11:12 PM,5.0,-0.4,78,29.90,5.0,NW,28.8,38.0,N/A,,Haze,320,2013-02-19 05:12:00
11:32 PM,5.0,-4.0,66,29.91,10.0,NW,32.2,42.6,N/A,,Mostly Cloudy,310,2013-02-19 05:32:00
11:53 PM,5.0,-4.0,66,29.91,10.0,NW,32.2,41.4,N/A,,Overcast,310,2013-02-19 05:53:00